Regional Weather Roundup
Issued by NWS Wilmington, NC

Home | Current Version | Previous Version | Text Only | Print | Product List | Glossary On
Versions: 1 2 3 4 5 6 7 8 9 10 11 12 13 14 15 16 17 18 19 20 21 22 23 24 25 26 27 28 29 30 31 32 33 34 35 36 37 38 39 40 41 42 43 44 45 46 47 48 49 50
000
ASUS42 KILM 221110
RWRILM
RWRILM
REGIONAL HOURLY WEATHER ROUNDUP
NATIONAL WEATHER SERVICE WILMINGTON NC
600 AM EST MON DEC 22 2014

NOTE: "FAIR" INDICATES FEW OR NO CLOUDS BELOW 12,000 FEET WITH NO
SIGNIFICANT WEATHER AND/OR OBSTRUCTIONS TO VISIBILITY.

...............WFO WILMINGTON COUNTY WARNING AREA...............

......COASTAL NC AND SC COUNTIES......

CITY           SKY/WX    TMP DP  RH WIND       PRES   REMARKS
WILMINGTON     CLOUDY    44  43  96 N9        30.04F FOG
SOUTHPORT      CLOUDY    46  45  97 N8        30.02F FOG
N MYRTLE BEACH CLOUDY    45  43  93 N7        30.03F FOG
MYRTLE BEACH   CLOUDY    46  43  87 N12       30.05S

......INLAND NC AND SC COUNTIES.......

CITY           SKY/WX    TMP DP  RH WIND       PRES   REMARKS
LUMBERTON      LGT RAIN  42  40  92 N8        30.11R FOG
ELIZABETHTOWN  HVY RAIN  41  41 100 N7        30.09R
WHITEVILLE     CLOUDY    42  41  95 N6        30.07R FOG
FLORENCE       LGT RAIN  43  41  93 N12       30.08R
DARLINGTON     CLOUDY    43  39  87 N12       30.11R

....................REST OF NORTH CAROLINA......................

.........EASTERN NC.........

CITY           SKY/WX    TMP DP  RH WIND       PRES   REMARKS
CAPE HATTERAS  LGT RAIN  56  56 100 E10G16    30.06S
JACKSONVILLE   CLOUDY    43  39  87 NE10G16   30.08S
MOREHEAD CITY  CLOUDY    50  49  96 N10       30.06R FOG
KENANSVILLE    CLOUDY    40  39  99 NE3       30.09F FOG
NEW BERN       CLOUDY    48  45  89 N8        30.10R
ELIZABETH CITY RAIN      47  41  80 NE16      30.16S

.........CENTRAL NC.........

CITY           SKY/WX    TMP DP  RH WIND       PRES   REMARKS
RALEIGH DURHAM LGT RAIN  36  33  89 NE12      30.14F WCI  28
ROCKY MOUNT    RAIN      38  36  92 NE14      30.13F FOG     WCI  30
ROANOKE RAPIDS NOT AVBL
FAYETTEVILLE   LGT RAIN  40  38  93 NE14      30.10S WCI  32
HOFFMAN        RAIN      40  39  98 NE9       30.13F WCI  34

.........WESTERN NC.........

CITY           SKY/WX    TMP DP  RH WIND       PRES   REMARKS
CHARLOTTE      DRIZZLE   40  37  89 NE9       30.12R FOG     WCI  34
GREENSBORO     LGT RAIN  35  33  92 NE12      30.13S WCI  27
HICKORY        NOT AVBL
BOONE          NOT AVBL
ASHEVILLE      NOT AVBL

.....................REST OF SOUTH CAROLINA.....................

.........EASTERN SC.........

CITY           SKY/WX    TMP DP  RH WIND       PRES   REMARKS
CHARLESTON     FOG       46  45  96 N6        30.04S VSB 1
BEAUFORT MCAS  CLOUDY    48  47  96 N9        30.04R FOG
HILTON HEAD    NOT AVBL

.........CENTRAL SC.........

CITY           SKY/WX    TMP DP  RH WIND       PRES   REMARKS
COLUMBIA       CLOUDY    45  43  93 NE6       30.09R FOG
ORANGEBURG     CLOUDY    44  41  89 NE8       30.07R
SUMTER SHAW    CLOUDY    43  41  93 NE10      30.07R

.........WESTERN SC.........

CITY           SKY/WX    TMP DP  RH WIND       PRES   REMARKS
GREENVILLE     NOT AVBL
ROCK HILL      CLOUDY    40  39  97 VRB7      30.11S FOG
ANDERSON       LGT RAIN  43  41  93 NE7       30.08R FOG
CLEMSON        NOT AVBL
GREENWOOD      CLOUDY    43  42  97 NE6       30.09S FOG


...................COASTAL AND OFFSHORE REPORTS..................

................LOCAL PIERS AND NC RESERVE................


STATION/POSITION TIME  SKY/WX   TEMP    WIND        PRES    VSBY
                                AIR SEA DIR/SP/G
                 (UTC)          (F)     (DEG/KT/KT) (MB)    (MI)
JOHNY MRCER PIER 1100            46 55   10/ 10/ 12 1016.4F
NC RESRV MASNBRO 1000            45     360/  3     1017.0S
OCEAN CREST PIER NOT AVBL
SPRINGMAID  PIER 1100            45 52  320/ 10/ 12 1017.7R


................COASTAL AND OFFSHORE BUOYS................


STATION/POSITION TIME  SKY/WX   TEMP    WIND        PRES    VSBY
                                AIR SEA DIR/SP/G
                 (UTC)          (F)     (DEG/KT/KT) (MB)    (MI)
DIMNDSHOAL 41025 1100            65                 1017.3F
WVE H/P(F/S)=  8/ 7

CAPE LOOKOUT     1000            54      30/ 14/ 17 1016.5F
ONSLOW BAY 41036 1100            58 60   30/ 17/ 21 1015.8F
WVE H/P(F/S)=  7/ 7 WND WVE H/P(F/S)=  7/ 7

5 WRITEBCH 41038 NOT AVBL
MASONBORO  41110 1100               54                N/A
WVE H/P(F/S)=  6/ 6 WND WVE H/P(F/S)=  5/ 6

WILM HARBR 41108 1100               54                N/A
WVE H/P(F/S)=  4/ 8 WND WVE H/P(F/S)=  5/ 8

27WRITEBCH 41037 1000            54 62   40/ 19/ 23 1016.7F
FRYING PAN 41013 1100            62 70   20/ 17/ 23 1016.0R
WVE H/P(F/S)=  7/ 8 WND WVE H/P(F/S)=  7/ 8 SWL H/P/D(F/S/D)=  2/110/11

SUNST NRSH 41024 1000            47      40/ 12/ 14   N/A
CAPRS NRSH 41029 1000            48      50/ 12/ 14   N/A
EDISTO     41004 1100            66 73  360/ 12/ 16 1015.4R
WVE H/P(F/S)=  6/ 9 WND WVE H/P(F/S)=  3/ 5 SWL H/P/D(F/S/D)=  5/ 9



..........OFFSHORE BUOYS BEYOND 100 NM OFFSHORE...........
.....IN A TRIANGLE---HAT TO BERMUDA TO BAHAMAS TO HAT.....


STATION/POSITION TIME  SKY/WX   TEMP    WIND        PRES    VSBY
                                AIR SEA DIR/SP/G
                 (UTC)          (F)     (DEG/KT/KT) (MB)    (MI)
150E HAT   41001 NOT AVBL
W BERMUDA  41048 1045            71 73  200/ 12/ 16 1019.4R
WVE H/P(F/S)=  4/ 5 WND WVE H/P(F/S)=  3/ 5 SWL H/P/D(F/S/D)=  2/ 90/ 8

ATLANTIC S 41049 1035            73 77   10/  2/  4 1021.7R
WVE H/P(F/S)=  4/ 9 SWL H/P/D(F/S/D)=  3/ 90/ 9

E BAHAMAS  41046 1044            77 80  100/ 12/ 16 1018.8R
WVE H/P(F/S)=  4/ 9 WND WVE H/P(F/S)=  2/ 5 SWL H/P/D(F/S/D)=  3/ 60/ 9

NE BAHAMAS 41047 1042            76 78  160/ 14/ 17 1019.2R
WVE H/P(F/S)=  4/ 9 WND WVE H/P(F/S)=  3/ 4 SWL H/P/D(F/S/D)=  3/ 80/ 9

120E CANVRL41010 1100            74 77  220/ 12/ 16 1017.6R
WVE H/P(F/S)=  3/ 7 WND WVE H/P(F/S)=  2/ 5 SWL H/P/D(F/S/D)=  3/ 70/ 7


END


USA.gov is the U.S. government's official web portal to all federal, state and local government web resources and services.